Voltar ao catálogo

ONEWEB-0257

AtivoComunicaçõesPO
NORAD 48975·PAYLOAD·🇬🇧 United Kingdom

Lançado Jul 1, 2021 de Vostochny Cosmodrome

Loading…

Próximas Passagens (próximas 24 horas)

TLE

AtualizadoSource: CelesTrak SupGP

Época: Sep 14, 2026, 15:13 UTC

1 48975C 21060J   26257.63421713  .00001211  00000+0  31706-2 0  2571
2 48975  87.9155 211.0106 0002188  76.3468 317.0361 13.16593361    14

Acompanhe ONEWEB-0257 em tempo real com AllMySat

Download on the App Store